This is the latest recevied weather packets stored in our database for station/object K7DC. If no packets are shown the sender has not sent any weather packets the latest 10 day(s).
| Time | Temp. | Humidity | Pressure | Rain* | Wind** | Luminosity | Snow |
|---|---|---|---|---|---|---|---|
| 1777664921 | 30.56° C | 19% | 1012.6 hPa | 0 mm | - | 893 W/m² | - |
| 1777664617 | 30.56° C | 19% | 1012.7 hPa | 0 mm | - | 897 W/m² | - |
| 1777664313 | 30° C | 20% | 1013 hPa | 0 mm | - | 901 W/m² | - |
| 1777664012 | 30.56° C | 19% | 1013 hPa | 0 mm | - | 904 W/m² | - |
| 1777663709 | 30.56° C | 19% | 1013.1 hPa | 0 mm | - | 908 W/m² | - |
| 1777663406 | 30° C | 20% | 1013.1 hPa | 0 mm | - | 910 W/m² | - |
| 1777663103 | 30° C | 20% | 1013 hPa | 0 mm | - | 914 W/m² | - |
| 1777662801 | 30° C | 20% | 1013.1 hPa | 0 mm | - | 913 W/m² | - |
| 1777662497 | 30° C | 21% | 1013.3 hPa | 0 mm | - | 912 W/m² | - |
| 1777662193 | 30° C | 21% | 1013.3 hPa | 0 mm | - | 914 W/m² | - |
| 1777661888 | 30.56° C | 20% | 1013.4 hPa | 0 mm | - | 913 W/m² | - |
| 1777661585 | 29.44° C | 21% | 1013.4 hPa | 0 mm | - | 912 W/m² | - |
| 1777661280 | 30° C | 21% | 1013.4 hPa | 0 mm | - | 910 W/m² | - |
| 1777660976 | 30° C | 21% | 1013.7 hPa | 0 mm | - | 909 W/m² | - |
| 1777660672 | 29.44° C | 21% | 1013.7 hPa | 0 mm | - | 907 W/m² | - |
| 1777660370 | 28.33° C | 23% | 1013.5 hPa | 0 mm | - | 904 W/m² | - |
| 1777660066 | 27.78° C | 25% | 1013.7 hPa | 0 mm | - | 899 W/m² | - |
| 1777659762 | 29.44° C | 23% | 1013.9 hPa | 0 mm | - | 895 W/m² | - |
| 1777659459 | 28.89° C | 23% | 1013.9 hPa | 0 mm | - | 891 W/m² | - |
| 1777659157 | 28.33° C | 24% | 1013.9 hPa | 0 mm | - | 886 W/m² | - |
| 1777658855 | 28.89° C | 25% | 1013.9 hPa | 0 mm | - | 879 W/m² | - |
| 1777658550 | 29.44° C | 24% | 1014.1 hPa | 0 mm | - | 871 W/m² | - |
| 1777658247 | 28.33° C | 26% | 1014.1 hPa | 0 mm | - | 866 W/m² | - |
| 1777657944 | 28.33° C | 26% | 1014.2 hPa | 0 mm | - | 858 W/m² | - |
| 1777657640 | 28.33° C | 26% | 1014.1 hPa | 0 mm | - | 850 W/m² | - |
* Rain latest hour (hover to see other rain measurements)
** Current wind speed in m/s (hover to see current wind gust speed)